This demonstration page uses our WeatherBlox Daily Observations layout. Learn more.

Left ArrowRight Arrow

41.86663, -103.66717

Hourly Observations for February 15, 2016

Temp ( °F °C ) Dew Point ( °F °C ) Humidity (%) Winds ( mph kmh ) Pressure ( in mb ) Visibility ( mi km ) Precip ( " mm )
12:53 am 00:53 Clear 29 -1.7 26 -3.3 89 89 NW 7 11 29.95 1014 10 16 N/A
1:53 am 01:53 Clear 28 -2.2 24 -4.4 85 85 NNW 3 6 29.94 1014 10 16 N/A
2:53 am 02:53 Clear 28 -2.2 24 -4.4 85 85 NNW 6 9 29.93 1014 10 16 N/A
3:53 am 03:53 Mostly Cloudy 28 -2.2 23 -5 81 81 N N/A 29.92 1013 10 16 N/A
4:53 am 04:53 Mostly Clear 26 -3.3 23 -5 88 88 NNW 5 7 29.92 1013 10 16 N/A
5:53 am 05:53 Mostly Cloudy 27 -2.8 22 -5.6 81 81 NW 5 7 29.93 1014 10 16 N/A
6:53 am 06:53 Mostly Sunny 28 -2.2 24 -4.4 85 85 N 3 6 29.90 1013 10 16 N/A
7:53 am 07:53 Mostly Cloudy 31 -0.6 27 -2.8 85 85 N 5 7 29.90 1013 10 16 N/A
8:53 am 08:53 Partly Cloudy 33 0.6 29 -1.7 85 85 N N/A 29.87 1012 10 16 N/A
9:53 am 09:53 Sunny 38 3.3 30 -1.1 73 73 N 5 7 29.85 1011 10 16 N/A
10:53 am 10:53 Cloudy 41 5 33 0.6 73 73 NW 7 11 29.83 1010 10 16 N/A
11:53 am 11:53 Cloudy 48 8.9 34 1.1 58 58 NW 7 11 29.77 1008 10 16 N/A
12:53 pm 12:53 Sunny 53 11.7 34 1.1 48 48 NW 7 11 29.70 1006 10 16 N/A
1:53 pm 13:53 Mostly Sunny 59 15 33 0.6 38 38 NW 15 24 29.65 1004 10 16 N/A
2:53 pm 14:53 Cloudy 56 13.3 32 undefined 40 40 WNW 18 30 29.65 1004 10 16 N/A
3:53 pm 15:53 Cloudy 55 12.8 35 1.7 47 47 W 25 41 29.66 1004 10 16 N/A
4:53 pm 16:53 Cloudy with Light Rain 48 8.9 42 5.6 80 80 WNW 16 26 29.73 1007 10 16 0.06 1.52
5:53 pm 17:53 Cloudy with Rain 46 7.8 42 5.6 86 86 WNW 20 31 29.75 1008 7 11 0.01 0.25
6:53 pm 18:53 Cloudy 43 6.1 42 5.6 97 97 N 17 28 29.81 1010 10 16 0.04 1.02
7:53 pm 19:53 Cloudy with Light Rain 39 3.9 38 3.3 96 96 N 15 24 29.86 1011 10 16 0.01 0.25
8:53 pm 20:53 Cloudy 39 3.9 39 3.9 100 100 WNW 8 13 29.90 1012 10 16 N/A
9:53 pm 21:53 Cloudy 39 3.9 38 3.3 96 96 NNW 20 31 29.94 1014 10 16 N/A
10:53 pm 22:53 Cloudy 39 3.9 36 2.2 89 89 NW 22 35 29.97 1015 10 16 N/A
11:53 pm 23:53 Cloudy 37 2.8 31 -0.6 79 79 WNW 13 20 29.99 1016 10 16 N/A

Powered by AerisWeather